Regional Weather Roundup
Issued by NWS Midland/Odessa, TX

Skip options and go directly to product.
Home | Oldest Version | Previous Version | Current Version | All | Graphics & Text | Save Text | Print | Product List | Glossary On

Skip product version selection by date and time.   
896
ASUS44 KMAF 281810
RWRMAF
MIDLAND AREA WEATHER ROUNDUP
NATIONAL WEATHER SERVICE MIDLAND TX
100 PM CDT SUN AUG 28 2016

...IN SOUTHWEST TEXAS AND SOUTHEAST NEW MEXICO...

CITY           SKY/WX    TMP DP  RH WIND       PRES   REMARKS
ALPINE         SUNNY     80  61  52 E5        30.23F
ANDREWS        NOT AVBL
ARTESIA        MOSUNNY   77  63  61 VRB3      30.15F
BIG SPRING     MOSUNNY   83  67  58 E8        30.13F
CARLSBAD       SUNNY     80  62  54 SE3       30.12F
DRYDEN           N/A     85  69  58 CALM      30.05F
FORT STOCKTON  SUNNY     87  63  44 CALM      30.10F
GUAD PASS      SUNNY     73  61  65 NE15      30.26S
HOBBS          SUNNY     81  63  54 E10       30.16F
MARFA          MOSUNNY  N/A N/A N/A CALM      30.20F
MIDLAND AIRPK  MOSUNNY   86  64  46 E8        30.12F
MIDLAND INTL   MOSUNNY   85  65  51 SE3       30.10F
ODESSA         SUNNY     85  65  51 VRB6      30.12F
PECOS          SUNNY     84  64  50 E3        30.07F
PRESIDIO       NOT AVBL
SEMINOLE       SUNNY     81  62  52 SE9       30.16S
SNYDER           N/A     83  67  57 S6        30.11F
WINK           SUNNY     85  62  46 E12       30.08F
$$
...OTHER STATIONS IN TEXAS...

CITY           SKY/WX    TMP DP  RH WIND       PRES   REMARKS
ABILENE        MOSUNNY   86  71  60 NW10      30.08F
AMARILLO       CLOUDY    81  58  45 SW9       30.16F
AUSTIN         PTSUNNY   84  72  67 NE9       30.03F
BROWNSVILLE    MOSUNNY   95  71  45 CALM      29.93F HX 102
CORPUS CHRISTI MOSUNNY   93  73  52 N13G20    29.95F HX 102
DALLAS FTW     PTSUNNY   89  68  49 SE9       30.06F
DEL RIO        MOSUNNY   88  72  58 SE8       30.01F
EL PASO        MOSUNNY   79  60  52 CALM      30.15S
HOUSTON INT    CLOUDY    87  75  67 NE9       29.98F
LUBBOCK        PTSUNNY   85  60  42 SE8       30.14F
SAN ANGELO     MOSUNNY   89  68  49 SE6       30.07F
SAN ANTONIO    PTSUNNY   87  70  56 NE12      30.03F
WACO           PTSUNNY   88  73  61 E7        30.05F
WICHITA FALLS  NOT AVBL
$$
...OTHER LOCATIONS IN NEW MEXICO...

CITY           SKY/WX    TMP DP  RH WIND       PRES   REMARKS
ALAMAGORDO     SUNNY     77  55  47 SW6       30.18F
ALBUQUERQUE    MOSUNNY   75  48  38 NW5       30.27S
CANNON AFB     MOSUNNY   78  58  50 W12       30.18F
CLOVIS         SUNNY     79  61  53 SW10G16   30.19S
HOLLOMAN AFB   SUNNY     78  59  52 VRB5      30.16F
ROSWELL        SUNNY     81  58  45 S8        30.15F
RUIDOSO        RAIN      63  54  72 E8        30.35S
SANTA FE       SUNNY     74  42  31 SW8       30.30F
TRUTH OR CONSE PTSUNNY   75  47  36 NW18G24   30.23S
TUCUMCARI      SUNNY     84  56  38 SW13G20   30.13F
$$

USA.gov is the U.S. government's official web portal to all federal, state and local government web resources and services.